Location: Broletto
(44.6000°N, 10.5833°E)
Time: 07:13:50
(UTC+00:00)

ARGOS - Pass Details

Date: 18 April 2021
Orbit: 819 x 835 km, 98.4° (Epoch: 06 May)

Event Time Altitude Azimuth Distance (km) Brightness Sun altitude
Rises 18:33:40 0° 178° (S) 3,355 6.1 -5.4°
Reaches altitude 10° 18:36:04 10° 184° (S) 2,424 5.4 -5.8°
Maximum altitude 18:41:18 53° 260° (W) 1,014 4.1 -6.7°
Drops below altitude 10° 18:46:34 10° 337° (NNW) 2,431 6.3 -7.5°
Sets 18:48:59 0° 342° (NNW) 3,366 7.0 -7.9°
